405  
ASUS44 KMAF 211310  
RWRMAF  
MIDLAND AREA WEATHER ROUNDUP  
NATIONAL WEATHER SERVICE MIDLAND TX  
800 AM CDT SUN OCT 21 2018  
   
..IN SOUTHWEST TEXAS AND SOUTHEAST NEW MEXICO
 
 
 
CITY SKY/WX TMP DP RH WIND PRES REMARKS
 
ALPINE CLOUDY 51 51 99 E5 30.43S  
ANDREWS CLOUDY 49 45 85 CALM 30.39S  
ARTESIA CLOUDY 54 54 100 CALM 30.37S  
BIG SPRING CLOUDY 46 43 88 NE3 30.40S  
CARLSBAD CLOUDY 53 50 89 SE3 30.36S  
DRYDEN N/A 56 50 80 N7 30.33R  
FORT STOCKTON CLOUDY 54 51 90 E3 30.36R  
GUAD PASS NOT AVBL  
HOBBS MOCLDY 50 45 81 E5 30.39S  
LAMESA NOT AVBL  
MARFA N/A 50 48 93 NE6 30.39R  
MIDLAND AIRPK N/A 47 44 90 CALM 30.39S  
MIDLAND INTL CLEAR 47 45 93 N3 30.38R  
ODESSA CLOUDY 48 45 89 NE8 30.38S  
PECOS CLOUDY 54 51 89 E5 30.37R  
PRESIDIO CLOUDY 58 54 86 NE6 30.34R  
SEMINOLE CLOUDY 49 45 84 CALM 30.43S  
SNYDER CLEAR 46 39 78 N6 30.38S  
WINK CLOUDY 53 49 86 NE3 30.36R  

   
..OTHER STATIONS IN TEXAS
 
 
 
CITY SKY/WX TMP DP RH WIND PRES REMARKS
 
ABILENE CLEAR 43 43 100 S3 30.36S  
AMARILLO CLOUDY 38 35 89 SW9 30.37S WCI 31  
AUSTIN MOCLDY 57 48 72 NE14 30.28R  
BROWNSVILLE LGT RAIN 69 69 100 NW14 30.10R  
CORPUS CHRISTI CLOUDY 65 58 78 NE20G25 30.18R  
DALLAS FTW PTCLDY 50 47 89 N6 30.32S  
DEL RIO CLOUDY 61 53 75 N5 30.30R  
EL PASO MOCLDY 57 46 66 E6 30.32R  
HOUSTON INT FAIR 59 54 83 NE9 30.24R  
LUBBOCK PTCLDY 43 39 86 CALM 30.38S  
SAN ANGELO PTCLDY 46 43 89 NE6 30.35R  
SAN ANTONIO MOCLDY 58 47 66 N9 30.28R  
WACO CLEAR 48 45 89 N6 30.32S  
WICHITA FALLS PTCLDY 39 32 76 S6 30.36S WCI 35  

   
..OTHER LOCATIONS IN NEW MEXICO
 
 
 
CITY SKY/WX TMP DP RH WIND PRES REMARKS
 
ALAMOGORDO CLOUDY 54 48 82 CALM 30.36R  
ALBUQUERQUE PTCLDY 48 33 56 N9 30.38R  
CANNON AFB CLOUDY 46 41 80 W3 30.40S  
CLOVIS MOCLDY 44 41 89 SW7 30.40S  
HOLLOMAN AFB CLOUDY 55 46 71 S7 30.36R  
ROSWELL PTCLDY 51 50 96 S3 30.37S  
RUIDOSO CLOUDY 43 41 93 SE6 30.44S WCI 39  
SANTA FE PTCLDY 37 31 78 NE6 30.40S WCI 32  
TRUTH OR CONSE CLOUDY 55 41 59 SW3 30.34S  
TUCUMCARI N/A N/A N/A N/A MISG 30.35S  

 
 
 
CLICK HERE TO GO TO PREVIOUS BULLETINS.

The Nexlab TX Page
The Nexlab NM Page Main Text Page